Flag for United Kingdom Weather past 2 weeks in Edinburgh, Scotland, United Kingdom

Now
54 °F

Passing clouds.


Feels Like: 52 °F
Forecast: 38 / 62 °F
Wind: 6 mph from Northwest

Location: Edinburgh Airport

Current Time: May 22, 2015 at 8:33:56 PM

Latest Report: May 22, 2015 at 7:50 PM


Visibility: N/A

Pressure: 30.21 "Hg

Humidity: 67%

Dew point: 43 °F

Location of EdinburghLocation

Historic Weather in Edinburgh — Graph

°F

Edinburgh temperature yesterday

Maximum temperature yesterday: 55 °F (at 3:50 PM)
Minimum temperature yesterday: 46 °F (at 4:20 AM)
Average temperature yesterday: 52 °F

Past Weeks' High & Low Weather Summary

 TemperatureHumidityPressure
High61 °F (May 10, 2:50 PM)100% (May 8, 11:20 PM)30.21 "Hg (May 8, 11:20 PM)
Low32 °F (May 8, 12:50 AM)43% (May 7, 7:20 PM)29.36 "Hg (May 18, 6:20 PM)
Average49 °F74%29.90 "Hg
* Reported May 7 7:20 PM — May 22 7:20 PM, Edinburgh, Weather by CustomWeather, © 2015

Note: Actual official high and low records may vary slightly from our data, if they occured in-between our weather recording intervals... More about our weather records

Advertising

Edinburgh weather history for previous 24 hours

 ConditionsComfort  
Time TempWeatherWind HumidityBarometerVisibility
7:20 PM
Fri, May 22
55 °FPassing clouds.10 mph63%30.21 "HgN/A
6:50 PM55 °FPassing clouds.9 mph63%30.18 "HgN/A
6:20 PM57 °FScattered clouds.12 mph59%30.18 "HgN/A
5:50 PM57 °FScattered clouds.12 mph59%30.18 "HgN/A
5:20 PM59 °FPartly sunny.9 mph63%30.15 "HgN/A
4:50 PM59 °FPartly sunny.12 mph59%30.15 "HgN/A
4:20 PM59 °FPassing clouds.14 mph59%30.15 "HgN/A
3:50 PM59 °FPassing clouds.14 mph55%30.15 "HgN/A
3:20 PM61 °FScattered clouds.15 mph55%30.12 "HgN/A
2:50 PM61 °FScattered clouds.20 mph59%30.12 "HgN/A
2:20 PM61 °FScattered clouds.17 mph59%30.12 "HgN/A
1:50 PM61 °FPartly sunny.18 mph63%30.12 "HgN/A
1:20 PM61 °FPartly sunny.17 mph68%30.09 "HgN/A
12:50 PM59 °FPartly sunny.17 mph72%30.09 "HgN/A
12:20 PM59 °FPartly sunny.18 mph72%30.09 "HgN/A
11:50 AM59 °FPartly sunny.16 mph72%30.09 "HgN/A
11:20 AM59 °FPartly sunny.21 mph72%30.09 "HgN/A
10:50 AM59 °FPartly sunny.17 mph72%30.09 "HgN/A
10:20 AM59 °FBroken clouds.22 mph77%30.09 "HgN/A
9:50 AM57 °FPartly sunny.21 mph77%30.09 "HgN/A
9:20 AM55 °FMostly cloudy.16 mph88%30.09 "HgN/A
8:50 AM54 °FPartly sunny.16 mph88%30.09 "HgN/A
8:20 AM55 °FPartly sunny.14 mph82%30.09 "HgN/A
7:50 AM55 °FPartly sunny.18 mph82%30.09 "HgN/A
7:20 AM55 °FPartly sunny.16 mph82%30.09 "HgN/A
6:50 AM55 °FPartly sunny.14 mph82%30.09 "HgN/A
6:20 AM55 °FPartly sunny.15 mph88%30.09 "HgN/A
5:50 AM55 °FPartly sunny.13 mph88%30.09 "HgN/A
5:20 AM55 °FPassing clouds.14 mph88%30.09 "HgN/A
4:50 AM55 °FPassing clouds.14 mph88%30.09 "HgN/A
4:20 AM55 °FMostly cloudy.16 mph88%30.09 "HgN/A
3:50 AM55 °FMostly cloudy.13 mph88%30.09 "HgN/A
3:20 AM55 °FPassing clouds.16 mph88%30.12 "HgN/A
2:50 AM55 °FPassing clouds.14 mph88%30.12 "HgN/A
2:20 AM55 °FPassing clouds.14 mph88%30.12 "HgN/A
1:50 AM55 °FPassing clouds.17 mph88%30.12 "HgN/A
1:20 AM55 °FPassing clouds.18 mph88%30.12 "HgN/A
12:50 AM55 °FPassing clouds.18 mph88%30.12 "HgN/A
12:20 AM55 °FPassing clouds.15 mph82%30.12 "HgN/A
11:50 PM
Thu, May 21
55 °FMostly cloudy.15 mph82%30.12 "HgN/A
11:20 PM55 °FPassing clouds.13 mph82%30.15 "HgN/A
10:20 PM55 °FPartly sunny.13 mph82%30.15 "HgN/A
9:50 PM55 °FBroken clouds.16 mph77%30.15 "HgN/A
9:20 PM55 °FPartly sunny.14 mph77%30.15 "HgN/A
8:50 PM55 °FPartly sunny.20 mph77%30.15 "HgN/A
8:20 PM55 °FPartly sunny.16 mph77%30.12 "HgN/A
Weather by CustomWeather, © 2015

See weather overviewHow to use our weather pages